owner,sensor,date,latitude,longitude,vertical_datum,wind_speed,wind_to_direction,wind_speed_of_gust,qcFlag 
TCOON,ioos:station:TCOON:006:1,2009-04-01T00:00:00Z,27.8217,-97.2040,0.0,0.7,19.0,1.8,'11111222,11111222,11111222' 
TCOON,ioos:station:TCOON:006:1,2009-04-01T02:00:00Z,27.8217,-97.2040,0.0,1.8,22.0,3.7,'11111222,11111222,11111222' 
TCOON,ioos:station:TCOON:006:1,2009-04-01T03:00:00Z,27.8217,-97.2040,0.0,2.8,32.0,4.7,'11111222,11111222,11111222' 
TCOON,ioos:station:TCOON:006:1,2009-04-01T04:00:00Z,27.8217,-97.2040,0.0,5.1,50.0,7.3,'11111222,11111222,11111222' 
TCOON,ioos:station:TCOON:006:1,2009-04-01T05:00:00Z,27.8217,-97.2040,0.0,4.5,53.0,6.5,'11111222,11111222,11111222' 
TCOON,ioos:station:TCOON:006:1,2009-04-01T06:00:00Z,27.8217,-97.2040,0.0,3.4,45.0,5.8,'11111222,11111222,11111222' 
TCOON,ioos:station:TCOON:006:1,2009-04-01T07:00:00Z,27.8217,-97.2040,0.0,1.8,96.0,3.6,'11111222,11111222,11111222' 
TCOON,ioos:station:TCOON:006:1,2009-04-01T08:00:00Z,27.8217,-97.2040,0.0,3.9,70.0,5.6,'11111222,11111222,11111222' 
TCOON,ioos:station:TCOON:006:1,2009-04-01T09:00:00Z,27.8217,-97.2040,0.0,3.4,63.0,4.8,'11111222,11111222,11111222' 
TCOON,ioos:station:TCOON:006:1,2009-04-01T10:00:00Z,27.8217,-97.2040,0.0,4.0,82.0,4.8,'11111222,11111222,11111222' 
TCOON,ioos:station:TCOON:006:1,2009-04-01T11:00:00Z,27.8217,-97.2040,0.0,5.5,62.0,7.4,'11111222,11111222,11111222' 
TCOON,ioos:station:TCOON:006:1,2009-04-01T12:00:00Z,27.8217,-97.2040,0.0,5.5,73.0,8.6,'11111222,11111222,11111222' 
TCOON,ioos:station:TCOON:006:1,2009-04-01T13:00:00Z,27.8217,-97.2040,0.0,5.4,90.0,9.0,'11111222,11111222,11111222' 
TCOON,ioos:station:TCOON:006:1,2009-04-01T14:00:00Z,27.8217,-97.2040,0.0,5.8,91.0,9.1,'11111222,11111222,11111222' 
TCOON,ioos:station:TCOON:006:1,2009-04-01T15:00:00Z,27.8217,-97.2040,0.0,7.9,114.0,11.0,'11111222,11111222,11111222' 
TCOON,ioos:station:TCOON:006:1,2009-04-01T16:00:00Z,27.8217,-97.2040,0.0,8.9,113.0,12.1,'11111222,11111222,11111222' 
TCOON,ioos:station:TCOON:006:1,2009-04-01T17:00:00Z,27.8217,-97.2040,0.0,6.0,104.0,10.7,'11111222,11111222,11111222' 
TCOON,ioos:station:TCOON:006:1,2009-04-01T18:00:00Z,27.8217,-97.2040,0.0,9.2,125.0,9.9,'11111222,11111222,11111222' 
TCOON,ioos:station:TCOON:006:1,2009-04-01T19:00:00Z,27.8217,-97.2040,0.0,5.7,134.0,8.1,'11111222,11111222,11111222' 
TCOON,ioos:station:TCOON:006:1,2009-04-01T20:00:00Z,27.8217,-97.2040,0.0,7.8,127.0,10.0,'11111222,11111222,11111222' 
TCOON,ioos:station:TCOON:006:1,2009-04-01T21:00:00Z,27.8217,-97.2040,0.0,8.6,141.0,11.9,'11111222,11111222,11111222' 
TCOON,ioos:station:TCOON:006:1,2009-04-01T22:00:00Z,27.8217,-97.2040,0.0,2.8,145.0,6.6,'11111222,11111222,11111222' 
TCOON,ioos:station:TCOON:006:1,2009-04-01T23:00:00Z,27.8217,-97.2040,0.0,3.8,136.0,6.4,'11111222,11111222,11111222' 
TCOON,ioos:station:TCOON:006:1,2009-04-02T00:00:00Z,27.8217,-97.2040,0.0,5.2,123.0,6.0,'11111222,11111222,11111222' 
TCOON,ioos:station:TCOON:006:1,2009-04-02T01:00:00Z,27.8217,-97.2040,0.0,5.6,134.0,7.5,'11111222,11111222,11111222' 
TCOON,ioos:station:TCOON:006:1,2009-04-02T02:00:00Z,27.8217,-97.2040,0.0,6.1,136.0,8.1,'11111222,11111222,11111222' 
TCOON,ioos:station:TCOON:006:1,2009-04-02T03:00:00Z,27.8217,-97.2040,0.0,1.8,82.0,4.9,'11111222,11111222,11111222' 
TCOON,ioos:station:TCOON:006:1,2009-04-02T04:00:00Z,27.8217,-97.2040,0.0,5.0,119.0,6.1,'11111222,11111222,11111222' 
TCOON,ioos:station:TCOON:006:1,2009-04-02T05:00:00Z,27.8217,-97.2040,0.0,4.5,139.0,6.8,'11111222,11111222,11111222' 
TCOON,ioos:station:TCOON:006:1,2009-04-02T06:00:00Z,27.8217,-97.2040,0.0,8.9,165.0,12.1,'11111222,11111222,11111222' 
TCOON,ioos:station:TCOON:006:1,2009-04-02T07:00:00Z,27.8217,-97.2040,0.0,7.2,156.0,11.0,'11111222,11111222,11111222' 
TCOON,ioos:station:TCOON:006:1,2009-04-02T08:00:00Z,27.8217,-97.2040,0.0,6.9,173.0,8.9,'11111222,11111222,11111222' 
TCOON,ioos:station:TCOON:006:1,2009-04-02T09:00:00Z,27.8217,-97.2040,0.0,6.4,166.0,7.6,'11111222,11111222,11111222' 
TCOON,ioos:station:TCOON:006:1,2009-04-02T10:00:00Z,27.8217,-97.2040,0.0,4.6,194.0,5.5,'11111222,11111222,11111222' 
TCOON,ioos:station:TCOON:006:1,2009-04-02T11:00:00Z,27.8217,-97.2040,0.0,4.4,235.0,5.8,'11111222,11111222,11111222' 
TCOON,ioos:station:TCOON:006:1,2009-04-02T12:00:00Z,27.8217,-97.2040,0.0,3.4,230.0,4.1,'11111222,11111222,11111222' 
TCOON,ioos:station:TCOON:006:1,2009-04-02T13:00:00Z,27.8217,-97.2040,0.0,4.2,268.0,4.9,'11111222,11111222,11111222' 
TCOON,ioos:station:TCOON:006:1,2009-04-02T14:00:00Z,27.8217,-97.2040,0.0,4.9,320.0,9.8,'11111222,11111222,11111222' 
TCOON,ioos:station:TCOON:006:1,2009-04-02T15:00:00Z,27.8217,-97.2040,0.0,8.1,308.0,12.5,'11111222,11111222,11111222' 
TCOON,ioos:station:TCOON:006:1,2009-04-02T16:00:00Z,27.8217,-97.2040,0.0,8.0,300.0,12.4,'11111222,11111222,11111222' 
TCOON,ioos:station:TCOON:006:1,2009-04-02T17:00:00Z,27.8217,-97.2040,0.0,10.2,297.0,15.2,'11111222,11111222,11111222' 
TCOON,ioos:station:TCOON:006:1,2009-04-02T18:00:00Z,27.8217,-97.2040,0.0,10.2,292.0,14.6,'11111222,11111222,11111222' 
TCOON,ioos:station:TCOON:006:1,2009-04-02T19:00:00Z,27.8217,-97.2040,0.0,8.2,301.0,11.8,'11111222,11111222,11111222' 
TCOON,ioos:station:TCOON:006:1,2009-04-02T20:00:00Z,27.8217,-97.2040,0.0,8.1,307.0,11.4,'11111222,11111222,11111222' 
TCOON,ioos:station:TCOON:006:1,2009-04-02T21:00:00Z,27.8217,-97.2040,0.0,8.5,300.0,13.9,'11111222,11111222,11111222' 
TCOON,ioos:station:TCOON:006:1,2009-04-02T22:00:00Z,27.8217,-97.2040,0.0,3.7,306.0,8.6,'11111222,11111222,11111222' 
TCOON,ioos:station:TCOON:006:1,2009-04-02T23:00:00Z,27.8217,-97.2040,0.0,4.5,339.0,9.4,'11111222,11111222,11111222' 
TCOON,ioos:station:TCOON:006:1,2009-04-03T00:00:00Z,27.8217,-97.2040,0.0,2.5,340.0,3.5,'11111222,11111222,11111222' 
TCOON,ioos:station:TCOON:006:1,2009-04-03T01:00:00Z,27.8217,-97.2040,0.0,1.2,4.0,3.2,'11111222,11111222,11111222' 
TCOON,ioos:station:TCOON:006:1,2009-04-03T02:00:00Z,27.8217,-97.2040,0.0,1.4,14.0,3.4,'11111222,11111222,11111222' 
TCOON,ioos:station:TCOON:006:1,2009-04-03T03:00:00Z,27.8217,-97.2040,0.0,1.3,13.0,4.1,'11111222,11111222,11111222' 
TCOON,ioos:station:TCOON:006:1,2009-04-03T04:00:00Z,27.8217,-97.2040,0.0,2.0,10.0,4.4,'11111222,11111222,11111222' 
TCOON,ioos:station:TCOON:006:1,2009-04-03T05:00:00Z,27.8217,-97.2040,0.0,0.9,18.0,2.5,'11111222,11111222,11111222' 
TCOON,ioos:station:TCOON:006:1,2009-04-03T06:00:00Z,27.8217,-97.2040,0.0,4.6,35.0,6.2,'11111222,11111222,11111222' 
TCOON,ioos:station:TCOON:006:1,2009-04-03T07:00:00Z,27.8217,-97.2040,0.0,4.2,39.0,5.8,'11111222,11111222,11111222' 
TCOON,ioos:station:TCOON:006:1,2009-04-03T08:00:00Z,27.8217,-97.2040,0.0,4.1,53.0,6.4,'11111222,11111222,11111222' 
TCOON,ioos:station:TCOON:006:1,2009-04-03T09:00:00Z,27.8217,-97.2040,0.0,2.9,46.0,5.9,'11111222,11111222,11111222' 
TCOON,ioos:station:TCOON:006:1,2009-04-03T10:00:00Z,27.8217,-97.2040,0.0,2.1,48.0,4.3,'11111222,11111222,11111222' 
TCOON,ioos:station:TCOON:006:1,2009-04-03T11:00:00Z,27.8217,-97.2040,0.0,2.1,50.0,3.8,'11111222,11111222,11111222' 
TCOON,ioos:station:TCOON:006:1,2009-04-03T12:00:00Z,27.8217,-97.2040,0.0,2.9,58.0,3.7,'11111222,11111222,11111222' 
TCOON,ioos:station:TCOON:006:1,2009-04-03T13:00:00Z,27.8217,-97.2040,0.0,4.1,69.0,5.3,'11111222,11111222,11111222' 
TCOON,ioos:station:TCOON:006:1,2009-04-03T14:00:00Z,27.8217,-97.2040,0.0,4.3,69.0,5.8,'11111222,11111222,11111222' 
TCOON,ioos:station:TCOON:006:1,2009-04-03T15:00:00Z,27.8217,-97.2040,0.0,3.6,67.0,5.7,'11111222,11111222,11111222' 
TCOON,ioos:station:TCOON:006:1,2009-04-03T16:00:00Z,27.8217,-97.2040,0.0,3.8,83.0,6.0,'11111222,11111222,11111222' 
TCOON,ioos:station:TCOON:006:1,2009-04-03T17:00:00Z,27.8217,-97.2040,0.0,4.1,107.0,7.0,'11111222,11111222,11111222' 
TCOON,ioos:station:TCOON:006:1,2009-04-03T18:00:00Z,27.8217,-97.2040,0.0,4.1,95.0,6.4,'11111222,11111222,11111222' 
TCOON,ioos:station:TCOON:006:1,2009-04-03T19:00:00Z,27.8217,-97.2040,0.0,4.7,98.0,7.3,'11111222,11111222,11111222' 
TCOON,ioos:station:TCOON:006:1,2009-04-03T20:00:00Z,27.8217,-97.2040,0.0,5.4,88.0,7.6,'11111222,11111222,11111222' 
TCOON,ioos:station:TCOON:006:1,2009-04-03T21:00:00Z,27.8217,-97.2040,0.0,5.4,90.0,7.4,'11111222,11111222,11111222' 
TCOON,ioos:station:TCOON:006:1,2009-04-03T22:00:00Z,27.8217,-97.2040,0.0,4.7,105.0,6.7,'11111222,11111222,11111222' 
TCOON,ioos:station:TCOON:006:1,2009-04-03T23:00:00Z,27.8217,-97.2040,0.0,4.9,110.0,8.3,'11111222,11111222,11111222' 
TCOON,ioos:station:TCOON:006:1,2009-04-04T00:00:00Z,27.8217,-97.2040,0.0,3.0,101.0,5.2,'11111222,11111222,11111222' 
TCOON,ioos:station:TCOON:006:1,2009-04-04T01:00:00Z,27.8217,-97.2040,0.0,2.8,106.0,4.8,'11111222,11111222,11111222' 
TCOON,ioos:station:TCOON:006:1,2009-04-04T02:00:00Z,27.8217,-97.2040,0.0,3.8,108.0,5.3,'11111222,11111222,11111222' 
TCOON,ioos:station:TCOON:006:1,2009-04-04T03:00:00Z,27.8217,-97.2040,0.0,3.9,109.0,6.5,'11111222,11111222,11111222' 
TCOON,ioos:station:TCOON:006:1,2009-04-04T04:00:00Z,27.8217,-97.2040,0.0,3.5,110.0,4.7,'11111222,11111222,11111222' 
TCOON,ioos:station:TCOON:006:1,2009-04-04T05:00:00Z,27.8217,-97.2040,0.0,3.5,121.0,4.7,'11111222,11111222,11111222' 
TCOON,ioos:station:TCOON:006:1,2009-04-04T06:00:00Z,27.8217,-97.2040,0.0,3.1,132.0,5.2,'11111222,11111222,11111222' 
TCOON,ioos:station:TCOON:006:1,2009-04-04T07:00:00Z,27.8217,-97.2040,0.0,4.0,134.0,6.1,'11111222,11111222,11111222' 
TCOON,ioos:station:TCOON:006:1,2009-04-04T08:00:00Z,27.8217,-97.2040,0.0,4.6,140.0,6.5,'11111222,11111222,11111222' 
TCOON,ioos:station:TCOON:006:1,2009-04-04T09:00:00Z,27.8217,-97.2040,0.0,4.8,138.0,6.4,'11111222,11111222,11111222' 
TCOON,ioos:station:TCOON:006:1,2009-04-04T10:00:00Z,27.8217,-97.2040,0.0,6.0,140.0,7.3,'11111222,11111222,11111222' 
TCOON,ioos:station:TCOON:006:1,2009-04-04T11:00:00Z,27.8217,-97.2040,0.0,5.8,144.0,7.2,'11111222,11111222,11111222' 
TCOON,ioos:station:TCOON:006:1,2009-04-04T12:00:00Z,27.8217,-97.2040,0.0,4.3,139.0,6.8,'11111222,11111222,11111222' 
TCOON,ioos:station:TCOON:006:1,2009-04-04T13:00:00Z,27.8217,-97.2040,0.0,5.5,148.0,7.2,'11111222,11111222,11111222' 
TCOON,ioos:station:TCOON:006:1,2009-04-04T14:00:00Z,27.8217,-97.2040,0.0,5.4,157.0,7.0,'11111222,11111222,11111222' 
TCOON,ioos:station:TCOON:006:1,2009-04-04T15:00:00Z,27.8217,-97.2040,0.0,6.1,147.0,7.7,'11111222,11111222,11111222' 
TCOON,ioos:station:TCOON:006:1,2009-04-04T16:00:00Z,27.8217,-97.2040,0.0,6.4,146.0,8.3,'11111222,11111222,11111222' 
TCOON,ioos:station:TCOON:006:1,2009-04-04T17:00:00Z,27.8217,-97.2040,0.0,6.0,148.0,7.9,'11111222,11111222,11111222' 
TCOON,ioos:station:TCOON:006:1,2009-04-04T18:00:00Z,27.8217,-97.2040,0.0,4.9,132.0,6.8,'11111222,11111222,11111222' 
TCOON,ioos:station:TCOON:006:1,2009-04-04T19:00:00Z,27.8217,-97.2040,0.0,4.6,118.0,7.1,'11111222,11111222,11111222' 
TCOON,ioos:station:TCOON:006:1,2009-04-04T20:00:00Z,27.8217,-97.2040,0.0,5.2,115.0,7.6,'11111222,11111222,11111222' 
TCOON,ioos:station:TCOON:006:1,2009-04-04T21:00:00Z,27.8217,-97.2040,0.0,4.3,105.0,6.8,'11111222,11111222,11111222' 
TCOON,ioos:station:TCOON:006:1,2009-04-04T22:00:00Z,27.8217,-97.2040,0.0,5.1,93.0,7.3,'11111222,11111222,11111222' 
TCOON,ioos:station:TCOON:006:1,2009-04-04T23:00:00Z,27.8217,-97.2040,0.0,5.4,92.0,7.5,'11111222,11111222,11111222' 
TCOON,ioos:station:TCOON:006:1,2009-04-05T00:00:00Z,27.8217,-97.2040,0.0,5.1,87.0,6.9,'11111222,11111222,11111222' 
TCOON,ioos:station:TCOON:006:1,2009-04-05T01:00:00Z,27.8217,-97.2040,0.0,4.3,92.0,6.2,'11111222,11111222,11111222' 
TCOON,ioos:station:TCOON:006:1,2009-04-05T02:00:00Z,27.8217,-97.2040,0.0,4.1,88.0,5.8,'11111222,11111222,11111222' 
TCOON,ioos:station:TCOON:006:1,2009-04-05T03:00:00Z,27.8217,-97.2040,0.0,3.8,111.0,5.1,'11111222,11111222,11111222' 
TCOON,ioos:station:TCOON:006:1,2009-04-05T04:00:00Z,27.8217,-97.2040,0.0,4.4,126.0,5.6,'11111222,11111222,11111222' 
TCOON,ioos:station:TCOON:006:1,2009-04-05T05:00:00Z,27.8217,-97.2040,0.0,4.7,135.0,6.6,'11111222,11111222,11111222' 
TCOON,ioos:station:TCOON:006:1,2009-04-05T06:00:00Z,27.8217,-97.2040,0.0,5.2,148.0,7.5,'11111222,11111222,11111222' 
TCOON,ioos:station:TCOON:006:1,2009-04-05T07:00:00Z,27.8217,-97.2040,0.0,5.0,150.0,6.6,'11111222,11111222,11111222' 
TCOON,ioos:station:TCOON:006:1,2009-04-05T08:00:00Z,27.8217,-97.2040,0.0,3.7,161.0,6.1,'11111222,11111222,11111222' 
TCOON,ioos:station:TCOON:006:1,2009-04-05T09:00:00Z,27.8217,-97.2040,0.0,3.1,155.0,3.6,'11111222,11111222,11111222' 
TCOON,ioos:station:TCOON:006:1,2009-04-05T10:00:00Z,27.8217,-97.2040,0.0,3.1,159.0,4.4,'11111222,11111222,11111222' 
TCOON,ioos:station:TCOON:006:1,2009-04-05T11:00:00Z,27.8217,-97.2040,0.0,2.9,171.0,3.5,'11111222,11111222,11111222' 
TCOON,ioos:station:TCOON:006:1,2009-04-05T12:00:00Z,27.8217,-97.2040,0.0,2.0,336.0,4.7,'11111222,11111222,11111222' 
TCOON,ioos:station:TCOON:006:1,2009-04-05T13:00:00Z,27.8217,-97.2040,0.0,2.2,19.0,3.4,'11111222,11111222,11111222' 
TCOON,ioos:station:TCOON:006:1,2009-04-05T14:00:00Z,27.8217,-97.2040,0.0,1.6,9.0,5.2,'11111222,11111222,11111222' 
TCOON,ioos:station:TCOON:006:1,2009-04-05T15:00:00Z,27.8217,-97.2040,0.0,1.9,9.0,5.7,'11111222,11111222,11111222' 
TCOON,ioos:station:TCOON:006:1,2009-04-05T16:00:00Z,27.8217,-97.2040,0.0,2.4,38.0,4.7,'11111222,11111222,11111222' 
TCOON,ioos:station:TCOON:006:1,2009-04-05T17:00:00Z,27.8217,-97.2040,0.0,3.2,5.0,10.0,'11111222,11111222,11111222' 
TCOON,ioos:station:TCOON:006:1,2009-04-05T18:00:00Z,27.8217,-97.2040,0.0,4.1,355.0,9.4,'11111222,11111222,11111222' 
TCOON,ioos:station:TCOON:006:1,2009-04-05T19:00:00Z,27.8217,-97.2040,0.0,1.7,356.0,9.2,'11111222,11111222,11111222' 
TCOON,ioos:station:TCOON:006:1,2009-04-05T20:00:00Z,27.8217,-97.2040,0.0,2.9,12.0,6.9,'11111222,11111222,11111222' 
TCOON,ioos:station:TCOON:006:1,2009-04-05T21:00:00Z,27.8217,-97.2040,0.0,5.1,342.0,12.0,'11111222,11111222,11111222' 
TCOON,ioos:station:TCOON:006:1,2009-04-05T22:00:00Z,27.8217,-97.2040,0.0,1.9,352.0,11.6,'11111222,11111222,11111222' 
TCOON,ioos:station:TCOON:006:1,2009-04-05T23:00:00Z,27.8217,-97.2040,0.0,4.3,351.0,7.5,'11111222,11111222,11111222' 
TCOON,ioos:station:TCOON:006:1,2009-04-06T00:00:00Z,27.8217,-97.2040,0.0,1.7,4.0,6.5,'11111222,11111222,11111222' 
TCOON,ioos:station:TCOON:006:1,2009-04-06T01:00:00Z,27.8217,-97.2040,0.0,1.4,3.0,3.3,'11111222,11111222,11111222' 
TCOON,ioos:station:TCOON:006:1,2009-04-06T02:00:00Z,27.8217,-97.2040,0.0,1.8,350.0,4.2,'11111222,11111222,11111222' 
TCOON,ioos:station:TCOON:006:1,2009-04-06T03:00:00Z,27.8217,-97.2040,0.0,2.4,357.0,4.3,'11111222,11111222,11111222' 
TCOON,ioos:station:TCOON:006:1,2009-04-06T04:00:00Z,27.8217,-97.2040,0.0,2.0,355.0,3.2,'11111222,11111222,11111222' 
TCOON,ioos:station:TCOON:006:1,2009-04-06T05:00:00Z,27.8217,-97.2040,0.0,1.4,6.0,6.8,'11111222,11111222,11111222' 
TCOON,ioos:station:TCOON:006:1,2009-04-06T06:00:00Z,27.8217,-97.2040,0.0,2.2,357.0,4.8,'11111222,11111222,11111222' 
TCOON,ioos:station:TCOON:006:1,2009-04-06T07:00:00Z,27.8217,-97.2040,0.0,2.5,350.0,6.8,'11111222,11111222,11111222' 
TCOON,ioos:station:TCOON:006:1,2009-04-06T08:00:00Z,27.8217,-97.2040,0.0,3.7,358.0,8.7,'11111222,11111222,11111222' 
TCOON,ioos:station:TCOON:006:1,2009-04-06T09:00:00Z,27.8217,-97.2040,0.0,4.0,343.0,5.4,'11111222,11111222,11111222' 
TCOON,ioos:station:TCOON:006:1,2009-04-06T10:00:00Z,27.8217,-97.2040,0.0,3.0,343.0,5.3,'11111222,11111222,11111222' 
TCOON,ioos:station:TCOON:006:1,2009-04-06T11:00:00Z,27.8217,-97.2040,0.0,2.6,338.0,3.7,'11111222,11111222,11111222' 
TCOON,ioos:station:TCOON:006:1,2009-04-06T12:00:00Z,27.8217,-97.2040,0.0,2.7,344.0,4.5,'11111222,11111222,11111222' 
TCOON,ioos:station:TCOON:006:1,2009-04-06T13:00:00Z,27.8217,-97.2040,0.0,6.2,344.0,9.4,'11111222,11111222,11111222' 
TCOON,ioos:station:TCOON:006:1,2009-04-06T14:00:00Z,27.8217,-97.2040,0.0,4.3,344.0,7.6,'11111222,11111222,11111222' 
TCOON,ioos:station:TCOON:006:1,2009-04-06T15:00:00Z,27.8217,-97.2040,0.0,4.1,347.0,7.5,'11111222,11111222,11111222' 
TCOON,ioos:station:TCOON:006:1,2009-04-06T16:00:00Z,27.8217,-97.2040,0.0,2.9,1.0,12.2,'11111222,11111222,11111222' 
TCOON,ioos:station:TCOON:006:1,2009-04-06T17:00:00Z,27.8217,-97.2040,0.0,3.7,359.0,7.2,'11111222,11111222,11111222' 
TCOON,ioos:station:TCOON:006:1,2009-04-06T18:00:00Z,27.8217,-97.2040,0.0,2.6,4.0,7.7,'11111222,11111222,11111222' 
TCOON,ioos:station:TCOON:006:1,2009-04-06T19:00:00Z,27.8217,-97.2040,0.0,5.1,343.0,9.5,'11111222,11111222,11111222' 
TCOON,ioos:station:TCOON:006:1,2009-04-06T20:00:00Z,27.8217,-97.2040,0.0,3.0,349.0,7.0,'11111222,11111222,11111222' 
TCOON,ioos:station:TCOON:006:1,2009-04-06T21:00:00Z,27.8217,-97.2040,0.0,3.5,321.0,7.1,'11111222,11111222,11111222' 
TCOON,ioos:station:TCOON:006:1,2009-04-06T22:00:00Z,27.8217,-97.2040,0.0,3.6,338.0,8.7,'11111222,11111222,11111222' 
TCOON,ioos:station:TCOON:006:1,2009-04-06T23:00:00Z,27.8217,-97.2040,0.0,4.1,348.0,7.4,'11111222,11111222,11111222' 
TCOON,ioos:station:TCOON:006:1,2009-04-07T00:00:00Z,27.8217,-97.2040,0.0,3.4,1.0,5.3,'11111222,11111222,11111222' 
TCOON,ioos:station:TCOON:006:1,2009-04-07T01:00:00Z,27.8217,-97.2040,0.0,2.0,348.0,4.0,'11111222,11111222,11111222' 
TCOON,ioos:station:TCOON:006:1,2009-04-07T02:00:00Z,27.8217,-97.2040,0.0,0.5,16.0,1.9,'11111222,11111222,11111222' 
TCOON,ioos:station:TCOON:006:1,2009-04-07T03:00:00Z,27.8217,-97.2040,0.0,1.2,281.0,1.6,'11111222,11111222,11111222' 
TCOON,ioos:station:TCOON:006:1,2009-04-07T04:00:00Z,27.8217,-97.2040,0.0,1.7,335.0,2.3,'11111222,11111222,11111222' 
TCOON,ioos:station:TCOON:006:1,2009-04-07T05:00:00Z,27.8217,-97.2040,0.0,1.6,335.0,2.4,'11111222,11111222,11111222' 
TCOON,ioos:station:TCOON:006:1,2009-04-07T06:00:00Z,27.8217,-97.2040,0.0,1.3,328.0,2.6,'11111222,11111222,11111222' 
TCOON,ioos:station:TCOON:006:1,2009-04-07T07:00:00Z,27.8217,-97.2040,0.0,1.7,336.0,2.3,'11111222,11111222,11111222' 
TCOON,ioos:station:TCOON:006:1,2009-04-07T08:00:00Z,27.8217,-97.2040,0.0,1.4,329.0,2.4,'11111222,11111222,11111222' 
TCOON,ioos:station:TCOON:006:1,2009-04-07T09:00:00Z,27.8217,-97.2040,0.0,1.0,357.0,1.5,'11111222,11111222,11111222' 
TCOON,ioos:station:TCOON:006:1,2009-04-07T10:00:00Z,27.8217,-97.2040,0.0,1.2,315.0,1.7,'11111222,11111222,11111222' 
TCOON,ioos:station:TCOON:006:1,2009-04-07T11:00:00Z,27.8217,-97.2040,0.0,1.6,327.0,1.8,'11111222,11111222,11111222' 
TCOON,ioos:station:TCOON:006:1,2009-04-07T12:00:00Z,27.8217,-97.2040,0.0,1.3,348.0,1.8,'11111222,11111222,11111222' 
TCOON,ioos:station:TCOON:006:1,2009-04-07T13:00:00Z,27.8217,-97.2040,0.0,0.8,355.0,2.1,'11111222,11111222,11111222' 
TCOON,ioos:station:TCOON:006:1,2009-04-07T14:00:00Z,27.8217,-97.2040,0.0,3.1,77.0,3.7,'11111222,11111222,11111222' 
TCOON,ioos:station:TCOON:006:1,2009-04-07T15:00:00Z,27.8217,-97.2040,0.0,2.1,81.0,3.4,'11111222,11111222,11111222' 
TCOON,ioos:station:TCOON:006:1,2009-04-07T16:00:00Z,27.8217,-97.2040,0.0,2.3,138.0,3.0,'11111222,11111222,11111222' 
TCOON,ioos:station:TCOON:006:1,2009-04-07T17:00:00Z,27.8217,-97.2040,0.0,2.6,111.0,4.0,'11111222,11111222,11111222' 
TCOON,ioos:station:TCOON:006:1,2009-04-07T18:00:00Z,27.8217,-97.2040,0.0,2.2,118.0,4.2,'11111222,11111222,11111222' 
TCOON,ioos:station:TCOON:006:1,2009-04-07T19:00:00Z,27.8217,-97.2040,0.0,3.1,93.0,4.9,'11111222,11111222,11111222' 
TCOON,ioos:station:TCOON:006:1,2009-04-07T20:00:00Z,27.8217,-97.2040,0.0,5.4,145.0,6.9,'11111222,11111222,11111222' 
TCOON,ioos:station:TCOON:006:1,2009-04-07T21:00:00Z,27.8217,-97.2040,0.0,5.3,134.0,7.4,'11111222,11111222,11111222' 
TCOON,ioos:station:TCOON:006:1,2009-04-08T00:00:00Z,27.8217,-97.2040,0.0,7.2,145.0,8.8,'11111222,11111222,11111222' 
TCOON,ioos:station:TCOON:006:1,2009-04-08T01:00:00Z,27.8217,-97.2040,0.0,6.3,152.0,8.4,'11111222,11111222,11111222' 
TCOON,ioos:station:TCOON:006:1,2009-04-08T02:00:00Z,27.8217,-97.2040,0.0,6.6,152.0,9.2,'11111222,11111222,11111222' 
TCOON,ioos:station:TCOON:006:1,2009-04-08T03:00:00Z,27.8217,-97.2040,0.0,7.7,164.0,9.4,'11111222,11111222,11111222' 
TCOON,ioos:station:TCOON:006:1,2009-04-08T04:00:00Z,27.8217,-97.2040,0.0,8.8,168.0,11.0,'11111222,11111222,11111222' 
TCOON,ioos:station:TCOON:006:1,2009-04-08T05:00:00Z,27.8217,-97.2040,0.0,8.3,175.0,9.9,'11111222,11111222,11111222' 
TCOON,ioos:station:TCOON:006:1,2009-04-08T06:00:00Z,27.8217,-97.2040,0.0,8.8,176.0,11.4,'11111222,11111222,11111222' 
TCOON,ioos:station:TCOON:006:1,2009-04-08T07:00:00Z,27.8217,-97.2040,0.0,6.6,188.0,9.0,'11111222,11111222,11111222' 
TCOON,ioos:station:TCOON:006:1,2009-04-08T08:00:00Z,27.8217,-97.2040,0.0,6.7,204.0,9.1,'11111222,11111222,11111222' 
TCOON,ioos:station:TCOON:006:1,2009-04-08T09:00:00Z,27.8217,-97.2040,0.0,6.5,203.0,8.2,'11111222,11111222,11111222' 
TCOON,ioos:station:TCOON:006:1,2009-04-08T10:00:00Z,27.8217,-97.2040,0.0,5.7,193.0,8.1,'11111222,11111222,11111222' 
TCOON,ioos:station:TCOON:006:1,2009-04-08T11:00:00Z,27.8217,-97.2040,0.0,6.4,187.0,8.5,'11111222,11111222,11111222' 
TCOON,ioos:station:TCOON:006:1,2009-04-08T12:00:00Z,27.8217,-97.2040,0.0,5.4,186.0,6.9,'11111222,11111222,11111222' 
TCOON,ioos:station:TCOON:006:1,2009-04-08T13:00:00Z,27.8217,-97.2040,0.0,5.8,192.0,7.6,'11111222,11111222,11111222' 
TCOON,ioos:station:TCOON:006:1,2009-04-09T13:00:00Z,27.8217,-97.2040,0.0,8.8,171.0,10.2,'11111222,11111222,11111222' 
TCOON,ioos:station:TCOON:006:1,2009-04-09T14:00:00Z,27.8217,-97.2040,0.0,7.6,178.0,10.2,'11111222,11111222,11111222' 
TCOON,ioos:station:TCOON:006:1,2009-04-09T15:00:00Z,27.8217,-97.2040,0.0,8.4,173.0,12.5,'11111222,11111222,11111222' 
TCOON,ioos:station:TCOON:006:1,2009-04-09T16:00:00Z,27.8217,-97.2040,0.0,7.4,176.0,10.6,'11111222,11111222,11111222' 
TCOON,ioos:station:TCOON:006:1,2009-04-09T17:00:00Z,27.8217,-97.2040,0.0,8.2,167.0,9.5,'11111222,11111222,11111222' 
TCOON,ioos:station:TCOON:006:1,2009-04-09T18:00:00Z,27.8217,-97.2040,0.0,8.7,158.0,12.1,'11111222,11111222,11111222' 
TCOON,ioos:station:TCOON:006:1,2009-04-09T19:00:00Z,27.8217,-97.2040,0.0,9.3,160.0,11.8,'11111222,11111222,11111222' 
TCOON,ioos:station:TCOON:006:1,2009-04-09T20:00:00Z,27.8217,-97.2040,0.0,9.2,156.0,11.8,'11111222,11111222,11111222' 
TCOON,ioos:station:TCOON:006:1,2009-04-09T21:00:00Z,27.8217,-97.2040,0.0,9.4,154.0,11.9,'11111222,11111222,11111222' 
TCOON,ioos:station:TCOON:006:1,2009-04-09T22:00:00Z,27.8217,-97.2040,0.0,8.1,152.0,11.7,'11111222,11111222,11111222' 
TCOON,ioos:station:TCOON:006:1,2009-04-09T23:00:00Z,27.8217,-97.2040,0.0,8.3,153.0,12.4,'11111222,11111222,11111222' 
TCOON,ioos:station:TCOON:006:1,2009-04-10T00:00:00Z,27.8217,-97.2040,0.0,8.2,155.0,11.4,'11111222,11111222,11111222' 
TCOON,ioos:station:TCOON:006:1,2009-04-10T01:00:00Z,27.8217,-97.2040,0.0,7.2,154.0,10.7,'11111222,11111222,11111222' 
TCOON,ioos:station:TCOON:006:1,2009-04-10T02:00:00Z,27.8217,-97.2040,0.0,7.8,158.0,10.6,'11111222,11111222,11111222' 
TCOON,ioos:station:TCOON:006:1,2009-04-10T03:00:00Z,27.8217,-97.2040,0.0,8.0,161.0,9.7,'11111222,11111222,11111222' 
TCOON,ioos:station:TCOON:006:1,2009-04-10T04:00:00Z,27.8217,-97.2040,0.0,7.0,167.0,9.1,'11111222,11111222,11111222' 
TCOON,ioos:station:TCOON:006:1,2009-04-10T05:00:00Z,27.8217,-97.2040,0.0,7.7,162.0,9.0,'11111222,11111222,11111222' 
TCOON,ioos:station:TCOON:006:1,2009-04-10T06:00:00Z,27.8217,-97.2040,0.0,8.0,169.0,9.8,'11111222,11111222,11111222' 
TCOON,ioos:station:TCOON:006:1,2009-04-10T07:00:00Z,27.8217,-97.2040,0.0,7.8,168.0,9.3,'11111222,11111222,11111222' 
TCOON,ioos:station:TCOON:006:1,2009-04-10T08:00:00Z,27.8217,-97.2040,0.0,4.2,196.0,6.0,'11111222,11111222,11111222' 
TCOON,ioos:station:TCOON:006:1,2009-04-10T09:00:00Z,27.8217,-97.2040,0.0,2.1,214.0,3.1,'11111222,11111222,11111222' 
TCOON,ioos:station:TCOON:006:1,2009-04-10T10:00:00Z,27.8217,-97.2040,0.0,1.2,175.0,1.6,'11111222,11111222,11111222' 
TCOON,ioos:station:TCOON:006:1,2009-04-10T11:00:00Z,27.8217,-97.2040,0.0,0.3,97.0,0.5,'11111222,11111222,11111222' 
TCOON,ioos:station:TCOON:006:1,2009-04-10T12:00:00Z,27.8217,-97.2040,0.0,0.6,25.0,1.4,'11111222,11111222,11111222' 
TCOON,ioos:station:TCOON:006:1,2009-04-10T13:00:00Z,27.8217,-97.2040,0.0,1.5,50.0,2.6,'11111222,11111222,11111222' 